Погода в Солнечной Поляне

Россия / Самарская область     53°25′57″N   49°55′29″E
темп.,
°C
ветер,
м/с
пор.,
м/с
влажн.,
%
обл.,
%
осадки,
мм/ч
давл.,
гПа
погр.,
м
7 марта, вс
вс701:00−15ю007594 0.0 101320
04:00−15зсз117153 0.0 101320
07:00−16зюз127929 0.0 101220
10:00−10зюз238958 0.0 1013245
13:00−6зюз358795 0.1 1012633
16:00−6юз578795 0.1 1011802
19:00−9ююз51290100 0.1 1009480
22:00−8ююз71492100 0.3 1007738
8 марта, пн
пн801:00−5ююз81692100 1.4 10021068
04:00−4юз81691100 2.7 10001028
07:00−4юз81593100 0.9 999809
10:00−3з5893100 1.6 1001684
13:00−1зюз5107188 0.1 10021295
16:00−2юз6127694 0.3 10021332
19:00−3юз51090100 0.1 1001513
22:00−4юз3795100 0.6 1002273
9 марта, вт
вт901:00−5з389699 1.0 1003350
04:00−11з4109183 1.4 1005222
07:00−15зюз35957 0.0 100775
10:00−10з359328 0.0 1009269
13:00−8зсз359081 0.0 1009532
16:00−9сз458989 0.1 1010551
19:00−14сз369491 0.1 1011132
22:00−17сз379683 0.1 1013135
10 марта, ср
ср1001:00−20зсз349885 0.0 101475
04:00−21зсз3710088 0.0 1015126
07:00−22зсз3710092 0.0 1016129
10:00−19зсз479693 0.0 1017305
13:00−17сз579298 0.0 1018488
16:00−17сз589098 0.0 1019544
19:00−22сз499468 0.0 1020199
22:00−25зсз339843 0.0 102353
11 марта, чт
чт1101:00−27зсз339941 0.0 102449
04:00−28зсз339938 0.0 102633
07:00−28з349922 0.0 102649
10:00−21зсз469318 0.0 1028272
13:00−17з469112 0.0 1028379
16:00−15з479024 0.0 1028386
19:00−18зюз349410 0.0 102963
22:00−19з33955 0.0 103142